RH
5 5 5 5 4 5 5 6 6 6 8 8 10 11 11 12 21 29 38 90 100 98 98 100 100 100 100 100 100 100 100 100 100 100 100 68 81 99
6 5 5 4 4 4 4 5 5 5 5 6 7 9 9 10 11 20 30 32 79 100 89 98 100 100 100 100 100 100 100 100 100 100 100 100 100 100
6 5 5 5 5 5 4 4 4 4 5 6 6 7 8 9 9 12 17 28 45 94 100 95 100 100 100 100 100 98 100 100 100 100 100 100 100 100
7 5 5 4 4 4 4 5 5 5 4 5 5 7 7 8 8 9 11 20 47 52 100 100 100 100 100 100 95 100 100 100 100 100 100 100 100 93
7 7 7 6 4 4 3 3 3 3 4 4 5 6 7 8 8 10 11 14 21 43 92 100 100 100 100 100 100 100 100 100 100 100 100 100 100 100
7 7 8 8 7 4 3 3 3 3 3 3 4 4 6 8 8 8 10 12 15 24 39 100 100 100 100 100 100 100 100 100 100 100 100 100 100 100
10 8 12 10 6 4 2 2 2 2 3 3 3 4 4 6 8 8 8 11 12 15 26 58 100 100 100 100 100 100 100 100 100 100 100 100 100 100
7 8 9 7 5 3 3 2 2 2 2 4 6 6 5 5 6 6 8 9 11 15 19 24 53 96 100 100 100 100 100 100 100 100 100 100 100 100
11 12 9 7 6 4 3 3 2 3 3 3 5 8 9 7 7 8 9 10 12 12 16 21 27 36 94 100 100 100 100 100 100 100 100 100 100 100
16 13 13 10 7 7 4 4 4 5 7 9 11 12 13 12 10 9 9 10 10 12 14 19 26 28 57 100 100 100 100 100 100 100 100 100 100 100
23 19 20 17 14 12 10 8 7 9 12 14 16 17 18 16 12 11 10 11 9 12 14 19 22 25 36 67 100 100 100 100 100 100 100 100 100 100
25 26 24 24 23 20 20 21 17 19 22 20 20 24 24 22 20 17 21 15 14 19 18 17 24 31 35 42 58 69 100 100 100 100 100 100 100 100
24 27 26 35 27 30 25 26 33 38 37 34 37 46 34 29 30 38 69 56 70 50 48 42 42 45 47 51 49 53 100 100 100 100 100 100 100 100
20 28 33 34 37 38 42 42 38 48 56 71 64 54 55 58 64 48 46 46 68 82 56 62 69 58 54 44 45 52 56 75 100 100 100 100 100 100
12 19 26 39 48 46 51 53 52 64 68 70 72 71 77 81 80 87 75 80 99 87 77 77 75 84 76 75 65 66 62 59 95 100 100 100 100 100
16 15 18 24 34 48 45 47 58 70 60 60 60 64 78 78 69 76 92 99 99 96 91 88 93 97 87 83 77 90 94 97 96 90 88 83 86 76
22 22 21 19 21 29 34 45 53 58 70 79 91 97 92 84 82 90 90 80 78 83 88 88 86 89 94 98 96 90 90 81 68 62 60 58 52 59
24 23 22 23 23 22 20 20 22 25 30 34 40 52 64 81 90 97 100 98 98 99 100 100 100 100 100 100 99 89 86 86 82 76 76 81 84 80
36 29 23 22 24 26 25 25 26 26 24 24 24 24 24 24 23 24 25 31 39 46 55 58 62 60 43 35 40 49 51 48 41 33 29 30 39 35
56 52 46 39 39 43 47 47 49 47 44 40 39 40 43 42 39 41 46 48 39 32 26 25 24 26 27 24 23 22 21 22 18 18 18 16 17 18
78 90 91 81 68 64 65 67 67 71 70 64 64 66 61 61 58 56 59 61 65 64 57 48 43 46 44 44 46 47 43 30 30 28 29 26 26 26
100 96 100 96 80 77 73 70 72 73 74 62 56 61 67 64 64 64 65 67 66 60 54 52 49 45 41 38 34 32 28 26 20 20 22 23 23 24
100 100 100 100 100 97 84 79 78 73 68 64 61 62 73 66 60 59 61 66 63 67 57 46 42 38 33 24 22 23 21 18 16 14 14 15 15 15
Wind_Speed
81 82 83 83 84 85 86 87 86 83 85 84 83 88 88 90 95 90 84 78 76 71 65 62 64 64 64 63 64 62 60 61 60 60 64 64 60 60
72 73 74 76 78 81 84 86 88 89 86 87 86 89 95 91 93 95 91 86 82 79 76 71 69 68 68 66 67 64 61 61 62 65 66 67 63 63
62 64 66 67 68 71 75 79 82 88 87 89 89 91 95 93 92 92 95 90 87 85 81 74 75 74 72 69 70 66 65 67 66 69 71 68 69 66
57 57 57 61 62 67 70 74 77 79 82 85 88 90 93 94 93 91 90 93 90 89 87 81 76 76 74 76 75 66 69 73 73 78 75 73 70 71
51 53 55 57 60 63 67 70 72 76 79 82 84 87 89 93 93 93 91 88 93 91 90 89 83 80 77 78 77 75 74 77 80 81 79 77 75 73
45 48 49 53 59 62 61 61 65 67 70 71 74 80 82 89 95 96 94 93 91 94 97 94 89 88 83 82 82 77 79 81 82 80 77 79 80 78
41 41 44 51 56 58 57 57 57 59 61 64 64 67 74 81 91 96 98 96 95 91 97 98 95 88 88 87 89 84 85 83 82 83 85 82 84 83
39 35 42 45 49 52 53 53 54 55 57 56 59 63 67 72 77 85 91 98 99 96 96 100 101 98 92 91 90 90 86 86 83 85 87 92 89 87
37 35 37 37 39 46 46 46 48 52 56 60 60 61 63 66 71 70 74 84 89 98 98 97 101 100 99 91 91 90 94 89 89 91 94 96 94 94
38 39 38 39 37 38 40 41 41 45 47 49 53 57 60 61 60 61 65 69 77 85 94 94 95 97 101 98 92 92 87 91 95 98 94 94 93 92
40 40 39 37 35 34 31 30 32 35 38 41 46 48 50 53 53 57 59 61 65 72 78 85 93 90 96 103 104 102 96 99 100 97 95 95 91 93
39 38 38 37 34 29 30 28 26 26 28 32 32 34 37 39 43 46 49 53 56 56 61 69 77 82 88 95 104 108 107 103 104 97 95 98 95 96
38 39 36 35 34 35 31 25 24 24 28 28 28 29 32 36 38 42 45 47 49 55 54 55 63 76 85 91 98 103 105 108 102 103 102 105 103 107
37 38 39 36 33 34 33 31 27 25 25 27 29 30 32 35 40 41 44 40 38 45 49 49 56 64 77 89 92 97 103 109 106 106 107 106 109 110
38 38 38 38 37 35 37 36 32 29 29 28 27 29 31 32 30 30 33 38 40 51 51 49 52 62 72 77 84 88 96 100 105 108 107 106 115 114
40 39 39 39 40 40 39 39 39 38 36 35 34 35 35 35 35 33 32 34 40 48 52 52 56 61 66 72 80 84 86 90 94 98 104 110 111 108
42 41 40 40 40 41 41 42 43 44 42 42 42 43 44 45 45 45 46 47 47 49 53 55 57 57 59 63 68 73 79 84 85 87 89 92 94 95
41 41 41 41 41 41 41 42 43 44 45 46 46 47 48 51 53 55 57 59 60 61 63 66 68 70 72 73 75 77 79 81 82 82 83 85 89 90
42 44 44 42 41 40 40 41 41 43 44 43 45 47 48 49 51 53 55 58 61 64 67 70 71 74 75 77 78 81 83 84 85 86 86 88 90 93
42 42 42 40 40 41 41 41 42 43 43 45 47 48 49 50 51 53 55 57 60 62 64 66 68 71 74 76 79 82 82 84 85 86 87 86 87 90
42 40 40 43 45 46 46 47 48 49 50 52 53 55 55 56 57 59 62 65 66 68 72 76 77 78 80 82 85 88 91 90 91 91 93 93 93 92
48 48 49 50 49 51 51 52 54 57 57 59 60 59 61 64 67 67 69 71 73 76 79 81 83 86 87 88 89 90 92 94 95 95 94 95 95 95
53 52 54 56 56 59 59 61 61 62 61 60 61 59 64 67 68 70 71 72 76 80 83 85 87 89 92 92 94 96 98 97 95 96 94 93 93 91
Wind_Direction
262 262 261 260 257 257 255 254 253 250 248 248 250 254 253 250 248 248 246 244 246 247 245 245 249 252 256 261 264 266 267 273 272 278 284 290 291 292
262 261 261 261 259 258 256 255 256 254 251 248 248 248 251 251 249 247 246 245 245 246 244 243 247 251 255 260 262 262 264 269 273 278 285 286 289 288
265 264 262 261 259 260 259 257 255 253 252 249 248 247 249 250 251 249 246 246 243 245 247 245 246 250 253 257 260 264 265 268 272 278 282 283 283 285
262 263 263 261 260 259 258 256 256 255 254 251 250 247 248 249 250 251 249 246 244 244 245 244 247 250 252 257 258 261 264 268 272 275 278 278 282 283
265 265 264 264 263 261 259 257 258 258 256 253 252 252 248 248 249 247 248 246 244 244 244 245 246 248 251 252 257 257 261 262 267 272 276 280 284 282
265 266 268 268 266 265 263 262 261 260 260 259 257 254 252 247 247 248 246 245 244 243 245 245 246 247 249 252 257 259 261 265 269 272 276 278 281 282
268 269 269 269 269 270 269 266 263 261 259 259 258 256 253 249 248 247 247 245 246 244 245 245 244 246 248 251 254 256 260 266 266 269 272 279 280 281
275 275 271 273 274 272 271 269 265 262 260 257 252 251 251 250 251 251 249 246 245 245 245 246 246 247 248 249 253 259 261 263 264 269 273 275 278 279
279 282 281 277 278 276 272 269 265 261 257 252 249 250 250 250 249 251 251 249 249 247 247 247 249 248 247 249 252 257 261 259 263 266 268 272 276 278
280 279 282 283 281 280 279 273 265 259 256 255 254 256 254 255 255 252 249 248 247 247 246 246 248 249 249 247 251 256 259 262 262 266 268 271 275 277
279 280 281 282 283 287 282 280 273 264 260 259 258 258 256 256 256 253 252 252 249 249 249 246 248 248 249 250 249 253 257 259 264 265 265 270 274 277
277 279 277 282 283 281 286 288 288 278 271 265 260 258 255 252 253 252 253 257 260 260 257 252 249 247 249 249 251 253 255 257 261 262 265 269 273 276
275 276 279 278 282 285 283 282 289 280 275 270 262 254 253 251 246 247 246 254 258 259 257 254 249 243 245 248 249 252 252 255 259 263 264 268 270 273
272 275 277 278 278 279 284 287 286 280 277 276 273 263 255 250 253 247 250 246 248 256 262 257 252 252 251 251 253 255 256 257 258 262 265 267 270 272
271 270 272 274 275 278 278 278 277 270 273 273 270 267 267 266 265 265 268 256 248 258 256 258 259 260 257 257 259 261 261 262 261 263 266 269 271 273
265 268 269 271 271 270 270 272 275 276 276 275 275 274 276 277 271 261 258 264 263 256 263 265 265 265 262 261 260 261 263 265 266 267 269 270 271 273
263 262 263 264 265 267 269 270 271 273 272 272 274 276 278 279 278 278 277 273 268 263 264 267 269 271 272 269 266 265 265 266 267 268 268 269 270 272
262 263 262 262 262 262 263 265 267 268 269 270 270 268 266 265 266 268 271 273 274 274 274 275 275 274 273 273 272 271 270 270 271 272 272 271 272 273
265 264 264 263 264 265 265 265 266 267 268 270 272 273 272 272 273 272 272 271 271 270 270 270 270 271 272 272 272 272 272 272 273 275 275 274 274 275
269 271 272 271 271 270 271 273 274 273 272 272 273 274 275 277 276 276 276 275 275 274 274 273 274 273 274 275 276 276 276 277 277 277 277 276 275 275
266 269 273 275 273 271 271 272 272 272 273 275 275 276 276 275 275 275 275 277 276 276 277 279 279 278 278 277 277 278 279 279 278 278 279 279 280 279
266 269 273 273 269 270 271 273 273 272 272 274 277 276 274 274 274 273 272 271 273 275 277 276 277 277 277 276 276 276 277 277 277 277 276 276 277 277
262 266 269 271 272 272 273 275 277 277 277 278 279 280 280 282 280 279 277 279 275 277 278 279 280 280 280 279 277 276 276 277 277 277 276 275 275 274